Location: Dal�� Lhota
(48.7500°N, 14.0167°E)
Time: 07:28:46
(UTC+00:00)

Explorer 7 - Pass Details

Date: 03 August 2021
Orbit: 484 x 676 km, 50.3° (Epoch: 21 September)

Event Time Altitude Azimuth Distance (km) Brightness Sun altitude
Rises 10:26:07 0° 277° (W) 2,737 10.2 57.4°
Reaches altitude 10° 10:30:43 10° 231° (SW) 1,902 9.9 57.6°
Maximum altitude 10:31:02 10° 227° (SW) 1,902 9.9 57.6°
Drops below altitude 10° 10:31:20 10° 223° (SW) 1,910 9.9 57.7°
Sets 10:36:09 0° 178° (S) 2,875 11.0 57.9°
